Theta_e
328 328 329 328 329 329 328 328 328 327 328 328 329 329 329 330 330 330 330 329 328 328 328 328 328 329 328 328 328 327 328 328 328 328 328 328 328 325 319 319 322 324 328 329 330 330 330 329 330 331 332 332 332 332 333 333 332 332 332 332 332 331 331 330 330 330 330 330 330 329 330 329 330 329 329 329 328 327 327 326 326 326 326 325 326
329 328 327 327 327 327 327 328 327 328 327 328 328 328 328 328 329 329 329 328 328 328 326 327 327 328 328 327 327 327 327 327 327 327 327 327 327 327 318 318 319 323 326 327 329 330 330 330 330 330 331 331 332 332 332 332 332 333 333 332 332 332 331 331 331 330 330 330 330 330 332 331 331 330 328 330 328 328 328 327 326 326 327 326 326
330 328 327 327 327 327 326 327 327 327 328 328 327 328 328 328 329 328 327 327 326 327 326 326 326 326 327 326 326 326 326 326 326 326 326 326 326 326 327 318 318 320 322 324 326 327 328 329 329 330 331 331 332 333 332 331 331 331 331 333 332 332 332 332 331 331 331 330 330 331 329 330 330 330 330 329 330 329 328 328 328 328 327 326 326
331 330 329 328 328 327 327 326 326 327 327 327 326 328 328 329 329 329 329 327 327 327 327 325 325 326 326 326 326 325 325 325 325 325 325 326 326 327 327 326 318 318 319 320 322 324 326 327 328 328 330 330 331 331 331 331 330 330 331 332 332 332 332 331 331 330 330 330 330 330 330 329 329 329 329 329 329 328 331 330 329 328 328 329 327
332 331 330 329 329 327 327 327 328 327 326 326 326 328 328 328 328 328 328 327 327 327 328 326 325 326 326 326 326 325 325 325 325 325 325 327 327 327 327 327 327 319 316 316 318 320 323 324 325 327 328 328 328 328 328 328 329 330 331 331 332 332 332 331 329 329 330 330 329 329 329 328 328 327 327 327 328 329 328 328 329 328 327 326 327
332 332 331 330 330 329 328 328 328 328 327 325 325 328 328 328 328 327 324 326 326 326 325 326 326 326 325 326 325 326 325 324 324 325 325 326 326 327 326 326 325 326 326 317 316 317 320 322 324 325 326 326 326 326 326 327 329 329 329 330 330 331 330 329 329 330 330 329 327 328 328 328 327 326 327 327 327 327 327 326 327 328 329 329 328
333 332 331 331 330 330 329 330 331 329 328 328 328 329 329 328 327 326 327 326 326 326 325 325 325 325 325 325 325 326 326 326 326 326 325 326 326 326 326 325 325 325 324 324 316 315 317 318 321 323 323 323 324 324 326 327 326 327 327 327 327 328 328 328 328 328 328 327 326 327 327 325 325 325 325 325 325 325 325 326 326 326 326 327 327
332 332 331 331 330 329 330 331 332 330 329 329 329 328 328 328 328 328 326 326 326 326 326 325 325 325 326 326 326 325 326 326 326 326 326 325 325 326 325 325 324 323 318 323 323 320 315 316 318 319 319 319 321 322 324 325 325 325 325 326 326 326 326 325 326 326 326 325 325 325 325 324 324 324 325 325 326 326 325 325 325 326 326 326 326
332 332 331 331 330 330 331 333 332 330 329 329 328 329 329 328 328 327 327 325 325 325 325 325 325 324 325 326 327 327 326 325 325 325 326 325 326 325 324 324 323 315 323 322 322 321 317 313 315 315 315 315 318 320 321 323 323 323 323 325 325 325 324 324 325 325 324 324 324 324 324 324 324 324 325 325 325 325 326 326 326 326 326 326 326
332 331 330 331 331 331 332 332 330 329 329 328 328 329 329 328 326 326 326 325 324 324 324 324 325 325 325 325 325 325 324 325 325 321 324 324 324 324 323 323 323 323 322 322 322 320 320 317 314 315 313 314 316 317 319 319 319 321 323 324 324 324 322 323 323 324 323 323 323 323 322 323 324 324 324 323 323 322 323 325 325 325 325 326 325
331 331 330 330 330 331 331 329 328 328 327 327 326 325 325 326 326 325 323 325 324 324 323 324 324 324 324 324 324 324 325 326 326 324 323 324 323 321 324 323 323 322 321 321 319 319 319 319 318 318 317 312 314 315 315 317 315 318 321 322 323 323 322 322 323 323 322 321 322 321 322 323 323 323 323 323 321 320 322 323 323 321 323 322 322
331 331 330 330 329 329 330 329 326 326 326 326 325 325 324 325 325 325 324 324 324 324 323 323 323 323 322 323 324 324 325 325 324 323 322 323 323 323 322 322 322 321 320 319 319 319 318 317 317 316 316 314 313 313 313 313 313 316 319 321 322 322 321 320 321 321 320 319 320 319 321 321 321 321 322 322 321 321 322 322 322 322 322 321 322
331 331 330 327 330 330 329 327 326 326 327 327 328 327 327 327 326 325 323 323 323 324 324 324 321 320 321 322 322 324 324 322 321 321 322 322 322 322 322 321 321 320 319 319 318 317 316 316 315 315 315 315 313 311 313 313 311 315 318 319 320 321 320 320 318 317 316 316 318 318 319 317 319 320 320 321 320 320 321 321 321 322 321 321 322
331 331 330 330 329 329 328 327 326 326 327 328 329 324 328 327 326 324 325 323 323 324 325 322 319 317 316 317 318 320 322 320 319 320 322 323 321 321 321 321 319 319 318 318 318 316 315 314 314 314 314 314 313 313 313 312 310 312 316 316 318 319 317 318 316 316 315 315 314 314 314 315 317 318 317 316 317 318 318 318 319 318 319 319 318
332 330 329 330 330 329 329 328 326 326 325 325 327 328 327 325 325 323 323 324 323 323 323 323 319 320 320 316 312 313 318 319 319 319 321 321 321 321 320 319 317 318 318 317 315 314 314 313 313 313 313 313 313 313 312 309 308 309 311 311 312 314 314 314 314 315 314 313 314 314 315 315 315 315 315 315 316 316 316 316 315 315 315 316 316
331 331 330 330 330 329 329 328 327 326 327 327 326 325 325 326 326 325 324 321 320 319 322 322 321 319 314 313 313 313 309 315 316 319 319 320 320 319 319 318 318 318 318 316 314 313 312 313 312 312 312 312 312 312 312 310 308 307 307 305 305 309 311 314 315 314 313 314 313 314 314 314 314 314 314 315 315 315 315 314 314 314 314 314 315
331 330 329 330 330 330 329 328 328 327 327 327 327 326 327 327 325 324 324 321 320 321 321 319 317 321 319 314 312 311 311 314 315 316 318 318 319 318 318 318 317 316 316 315 314 313 311 311 312 311 312 311 312 311 310 307 305 303 301 302 306 307 308 312 313 313 313 313 314 312 312 312 312 312 313 313 314 314 314 314 314 314 314 313 314
331 331 329 327 329 329 330 329 329 328 328 328 327 327 326 326 326 326 324 325 322 320 320 316 316 319 321 321 320 314 313 313 312 309 316 318 317 317 317 317 316 316 316 313 312 311 311 311 311 310 310 311 311 310 308 306 303 302 300 302 306 306 307 308 310 312 313 312 312 312 311 311 311 311 312 312 312 312 312 313 313 313 313 313 313
331 331 330 329 328 329 330 330 330 329 328 326 325 326 328 328 328 326 325 325 324 319 319 319 316 318 320 321 321 318 318 314 311 313 309 313 315 315 315 316 316 316 314 312 311 309 310 310 310 310 310 310 309 307 305 304 301 300 300 302 305 306 306 306 307 307 308 309 311 311 310 311 310 310 310 310 311 311 311 312 312 312 312 312 312
331 331 331 330 328 329 330 330 331 331 327 326 327 328 328 328 327 327 326 324 323 321 320 321 318 319 319 319 318 316 315 316 316 312 311 308 311 315 316 315 315 315 314 311 309 309 309 308 308 310 309 308 305 301 302 302 300 298 297 301 304 305 305 305 305 305 305 307 308 309 310 310 310 310 310 310 310 310 310 311 311 311 311 311 311
332 331 331 331 328 328 329 328 328 327 326 326 327 328 326 327 326 324 323 323 323 324 322 321 320 319 316 316 315 314 314 314 313 313 309 308 310 310 310 313 313 314 313 311 309 309 309 308 309 309 307 305 303 302 301 300 298 296 297 299 303 304 304 305 305 304 304 304 307 307 309 309 309 309 309 310 309 309 310 310 310 310 310 310 310
330 331 331 331 330 329 328 328 328 327 324 325 326 326 327 328 326 323 322 322 323 322 322 323 322 321 320 318 314 312 311 310 310 309 309 310 308 309 309 307 306 309 311 308 308 307 308 308 308 307 306 303 301 300 298 298 297 295 295 296 299 301 302 303 304 304 304 304 304 304 306 307 308 309 309 309 309 309 309 309 309 309 309 309 309
330 330 331 331 331 329 328 328 328 327 324 325 325 325 326 326 324 322 322 322 322 322 321 322 322 320 318 317 316 314 312 309 307 308 309 306 306 307 308 307 305 305 306 307 306 306 307 308 306 305 303 301 300 298 297 297 295 293 293 294 296 298 300 302 303 302 303 303 303 303 304 304 305 306 307 308 308 309 309 309 308 308 309 309 309
329 329 329 330 330 329 329 329 328 328 326 326 326 326 325 324 323 322 321 321 321 320 320 319 317 315 315 316 315 315 315 315 316 314 311 310 309 307 306 306 305 305 307 305 305 305 305 306 305 304 301 300 298 296 296 297 296 292 293 294 295 296 298 301 302 302 302 302 302 302 302 302 303 303 304 305 307 308 308 308 307 308 308 308 308
327 327 328 329 329 329 328 328 328 327 327 326 326 325 325 324 324 323 322 321 320 320 319 317 316 315 314 315 316 316 316 316 316 313 311 311 309 306 306 305 300 300 303 303 301 302 305 305 304 302 300 299 297 296 296 296 295 292 292 293 294 294 295 297 299 300 301 301 301 300 301 302 302 303 304 304 305 306 306 307 307 307 307 307 307
327 327 329 330 329 329 328 327 328 329 328 327 327 326 325 323 323 321 321 321 320 319 319 317 317 316 314 314 315 314 312 313 313 312 311 310 307 305 304 302 301 299 301 300 302 298 302 304 303 302 300 298 295 295 295 295 295 292 291 293 294 293 293 294 296 298 299 299 299 299 299 299 301 301 302 303 303 304 305 305 306 306 306 306 307
328 329 330 330 329 329 329 328 328 328 328 328 326 324 322 321 319 319 320 320 317 316 316 316 314 314 314 315 313 311 311 310 311 311 312 310 307 306 302 297 299 299 297 299 299 298 297 303 302 301 299 296 294 294 294 294 293 291 290 294 294 293 292 293 295 296 297 297 297 297 298 298 299 300 300 300 301 301 303 303 303 304 304 304 304
330 330 331 330 329 328 328 327 328 327 326 326 324 322 320 319 318 317 316 316 315 315 314 314 314 313 312 311 310 309 309 308 310 310 309 307 306 304 302 299 294 292 295 292 296 296 300 298 301 299 297 295 294 294 292 292 293 290 290 293 293 293 292 292 293 295 296 295 296 296 297 297 298 298 299 299 299 299 299 299 300 300 300 300 301
329 330 330 330 328 327 326 326 326 326 324 324 323 321 320 319 317 315 313 313 313 312 311 311 310 309 308 308 307 306 305 306 306 306 304 304 303 302 302 299 297 291 290 291 292 292 299 297 292 297 295 294 293 293 293 293 292 290 292 292 292 292 291 291 293 294 295 294 295 296 296 297 297 298 298 298 298 298 299 299 299 299 300 300 301
329 329 329 327 326 321 325 324 324 323 322 322 321 319 317 316 316 314 312 312 310 310 310 309 307 306 302 301 303 301 302 304 302 301 300 300 300 300 300 299 297 294 291 289 290 293 295 297 294 292 293 292 292 292 292 292 291 290 291 291 291 291 290 290 291 292 293 293 294 295 296 296 297 297 297 297 298 298 299 299 299 299 300 300 301
326 325 323 323 323 321 322 320 319 319 319 318 317 316 315 313 311 310 310 309 308 307 305 304 302 302 301 300 301 301 301 299 298 298 298 298 298 298 296 297 297 296 293 292 288 295 294 290 292 293 291 291 291 291 292 292 291 290 290 290 291 290 289 290 290 291 291 292 292 294 295 296 297 297 297 297 297 298 298 298 298 298 299 299 299
324 323 321 320 318 317 317 316 315 314 314 314 314 312 311 308 306 305 305 305 305 303 299 299 300 300 300 299 299 298 297 296 294 294 295 295 296 296 296 295 294 294 294 292 290 290 293 290 291 291 291 290 291 290 290 291 291 289 290 290 290 289 290 290 290 290 290 291 292 293 294 295 296 296 296 296 296 297 297 297 297 297 297 297 297
321 319 318 317 316 314 313 312 313 311 310 309 310 308 306 304 303 303 302 301 298 296 296 296 298 298 297 297 296 296 296 295 294 293 292 292 293 294 294 293 292 291 292 290 289 289 291 292 290 290 291 290 289 290 289 289 289 290 289 290 290 290 290 290 290 290 290 291 291 292 293 294 295 294 294 294 294 295 295 296 296 295 294 295 295
319 317 315 314 312 311 310 309 308 308 307 306 305 304 303 302 299 299 298 298 296 293 293 293 294 293 294 294 294 295 295 294 293 292 292 292 293 292 292 292 290 289 289 288 288 287 287 289 289 290 290 290 288 290 288 288 288 289 289 289 290 290 289 290 290 290 290 290 291 292 293 293 293 293 293 293 293 294 295 295 293 292 293 293 293
313 314 312 309 309 309 308 307 306 305 305 303 302 302 302 300 298 297 297 297 295 293 293 293 293 293 294 293 293 293 294 292 292 292 292 292 291 290 289 289 288 287 287 288 287 286 286 286 288 287 288 288 288 288 288 289 288 289 288 288 289 290 290 290 289 290 290 290 291 292 292 292 292 292 292 292 292 292 292 292 292 292 292 292 292
307 306 307 307 307 306 304 303 303 302 300 301 301 301 300 299 297 296 295 294 294 293 293 293 294 294 293 292 292 292 292 291 291 291 291 290 289 288 288 287 287 287 287 287 287 286 285 285 287 286 287 286 287 288 289 288 288 287 288 288 289 289 289 289 289 289 289 290 291 291 291 291 291 291 291 291 291 291 291 291 291 291 291 291 290
304 304 303 304 304 303 302 301 300 300 299 300 300 299 298 298 297 295 293 293 293 293 293 294 292 294 293 292 291 292 292 290 290 289 289 289 288 288 287 287 286 287 287 287 286 286 285 285 286 287 287 287 288 287 288 286 286 287 288 287 287 288 288 288 289 289 289 289 289 289 289 290 290 290 290 290 290 290 290 290 290 290 290 289 288
301 301 301 301 301 301 301 302 300 298 298 297 297 298 296 295 295 293 292 292 292 292 293 293 293 293 292 291 291 291 291 290 289 289 289 288 287 287 286 286 286 287 286 286 286 285 285 285 285 285 287 285 286 286 287 286 285 285 286 286 287 287 286 286 287 288 288 288 288 288 288 288 288 288 289 289 290 290 289 289 289 289 288 288 288
299 298 298 298 298 299 299 299 298 297 297 296 296 295 294 293 292 292 291 291 292 292 292 291 292 292 291 291 291 291 290 290 289 288 288 287 287 286 286 286 286 286 285 286 285 285 285 285 285 286 285 286 286 284 286 287 286 285 283 283 283 286 286 285 284 286 287 287 288 287 287 286 287 287 288 289 289 289 289 289 288 288 287 287 288
298 298 297 296 294 295 295 295 294 295 296 297 297 296 294 293 291 291 291 291 291 290 290 290 290 290 290 290 290 290 290 290 289 288 288 287 287 286 286 286 286 286 286 285 285 285 285 284 284 284 284 284 285 286 286 285 283 283 284 282 281 282 283 284 284 284 285 285 285 284 286 286 286 286 287 287 287 288 288 287 287 286 286 287 288
297 297 296 295 293 292 292 293 293 293 293 293 293 294 293 291 291 291 291 290 290 289 289 288 289 288 288 289 289 289 288 286 286 287 287 287 287 286 286 286 286 286 286 286 285 285 284 284 284 284 284 283 284 283 282 282 281 280 282 282 281 282 282 282 283 285 284 283 283 283 283 284 284 285 285 285 285 286 286 286 286 286 286 288 288
294 294 294 294 294 293 292 291 292 293 292 292 289 291 291 292 292 291 291 290 289 289 288 287 287 287 287 287 287 284 284 284 285 285 285 286 286 288 287 287 286 286 285 284 284 284 284 283 283 282 282 282 282 282 281 281 282 282 281 281 280 281 281 280 281 283 284 283 281 280 282 284 284 283 284 283 285 285 285 285 284 285 286 288 288
292 292 293 293 293 294 293 292 291 291 291 290 288 291 291 291 291 291 290 289 289 288 287 286 286 286 286 286 286 285 285 284 285 285 285 285 285 285 285 286 286 286 284 283 284 283 282 282 282 282 281 281 282 282 281 281 281 281 280 281 280 279 278 276 275 279 284 281 279 279 280 284 283 281 282 283 283 284 284 284 286 286 287 287 287
292 293 292 292 293 292 291 291 291 290 289 288 290 291 291 290 290 290 290 289 289 288 287 286 286 286 285 285 285 286 286 286 286 286 285 285 285 284 284 284 284 284 284 284 283 282 282 281 281 281 281 281 280 281 280 280 280 280 280 280 279 278 277 276 276 276 280 282 279 278 278 282 282 281 280 282 282 283 283 285 286 287 287 287 287
294 293 291 291 291 290 291 290 289 289 289 288 290 290 290 290 290 289 289 289 288 287 286 286 285 285 285 285 285 286 286 284 285 286 286 285 284 284 284 283 283 283 283 283 283 283 283 281 280 280 281 280 279 280 280 280 281 279 279 278 278 278 277 276 276 277 278 281 279 278 277 279 280 279 278 281 282 282 282 284 286 286 286 286 286
294 294 291 289 290 290 290 290 290 290 289 288 289 289 289 289 289 289 289 288 287 287 286 286 286 285 285 285 285 285 285 285 286 286 286 285 285 284 284 284 283 282 282 281 280 280 281 282 281 280 281 281 279 280 281 282 279 278 277 277 277 277 276 276 277 277 279 282 278 277 275 278 279 278 277 280 281 281 282 284 285 286 286 285 285
290 290 290 289 289 289 290 290 290 290 290 289 289 289 289 288 288 288 288 287 286 286 286 286 286 285 286 286 285 285 285 285 286 286 285 285 285 284 283 282 282 283 283 282 282 282 282 282 281 281 281 281 281 281 282 281 280 279 279 278 277 277 277 278 278 279 279 281 280 277 273 276 279 277 277 279 280 280 281 283 284 284 284 284 285
289 288 288 288 288 288 290 290 290 289 289 289 289 288 288 288 287 287 286 286 285 285 285 285 285 285 286 286 285 285 285 285 285 285 285 285 283 281 280 281 281 282 282 280 279 279 280 280 281 281 281 281 281 281 280 280 279 279 278 278 278 277 275 274 274 276 277 279 279 277 274 274 277 276 276 278 279 278 279 280 282 283 283 283 284
287 287 287 287 287 289 288 289 289 289 288 288 288 288 287 287 286 286 285 285 284 284 284 284 284 285 285 285 286 285 285 285 285 285 284 283 280 278 278 278 279 280 280 280 278 277 277 277 278 279 280 280 280 279 279 279 279 277 276 275 274 274 273 272 273 274 275 277 278 278 275 273 276 276 275 277 277 277 278 278 279 281 282 282 283
287 286 286 286 287 287 288 288 289 288 288 287 287 287 287 286 286 285 285 284 283 283 283 284 284 284 284 283 284 285 285 285 285 284 284 281 278 278 277 277 276 277 278 278 277 277 276 276 277 277 278 277 277 277 277 277 277 276 274 272 273 273 272 272 271 272 273 275 277 278 274 274 275 276 274 276 276 277 277 278 278 278 280 280 281
287 286 286 286 286 287 287 288 286 287 288 286 287 287 286 286 285 286 284 284 282 282 282 282 283 283 283 282 283 284 285 285 285 284 283 280 279 278 277 275 275 275 277 275 275 274 274 274 275 276 276 276 276 276 276 275 275 275 275 274 274 273 271 271 272 271 271 274 277 278 273 273 274 275 274 272 271 274 277 276 276 276 277 277 278
Wind_Speed
6 6 5 5 4 4 4 3 3 3 2 1 1 2 2 2 2 2 2 2 2 1 1 1 2 1 2 2 2 2 1 2 2 2 3 3 3 1 0 3 5 6 9 10 11 11 11 12 12 13 14 14 14 15 16 17 18 18 17 18 18 17 16 15 15 16 15 16 18 17 19 20 20 19 21 21 22 21 21 20 19 19 19 20 20
5 5 5 5 4 4 4 4 3 3 3 2 2 2 2 3 3 3 3 2 2 0 2 2 2 2 1 2 2 2 2 2 2 2 3 3 3 3 3 3 4 6 8 9 10 11 11 12 12 13 14 15 15 16 16 17 18 19 19 19 19 19 18 18 17 17 17 14 15 15 15 17 19 20 20 22 22 22 24 21 20 21 22 21 21
5 5 5 5 5 4 4 4 4 3 3 3 2 2 2 3 3 3 3 2 1 1 2 2 2 2 1 2 2 2 2 2 2 3 3 3 3 3 3 5 4 4 6 8 9 10 11 12 12 13 13 14 15 16 17 17 17 18 19 19 20 20 18 18 18 18 17 17 18 17 16 16 15 16 18 18 19 19 22 21 21 23 25 26 23
5 6 5 5 5 5 4 4 4 4 4 4 3 2 2 2 2 1 1 2 2 2 2 2 2 1 1 2 2 2 3 3 3 3 3 3 3 3 4 3 4 4 4 5 7 8 10 11 11 12 13 13 14 15 15 16 16 16 17 18 18 20 19 19 18 18 18 19 19 18 18 19 19 19 19 20 20 19 18 20 21 24 24 26 25
6 6 6 5 5 5 5 5 4 4 4 4 4 3 3 3 3 2 3 3 3 3 2 3 2 1 2 2 2 3 3 3 3 3 3 3 4 4 4 4 4 3 6 3 4 7 8 10 10 11 12 12 13 14 15 15 16 16 17 18 18 19 20 20 20 21 20 19 19 19 19 19 19 19 19 20 20 20 19 17 21 23 23 24 28
6 6 6 5 6 6 6 5 5 5 4 5 4 4 4 4 4 4 3 3 4 3 3 3 3 2 2 2 3 3 3 3 3 3 3 4 4 3 3 4 4 4 3 3 2 3 6 8 9 10 11 12 13 14 15 16 16 17 17 18 18 18 19 19 20 21 21 20 21 21 20 20 21 21 21 20 21 22 22 22 21 20 20 19 20
7 6 7 6 6 6 7 6 5 5 4 5 5 5 4 5 5 4 4 4 4 4 3 3 3 3 3 2 3 3 4 4 3 4 4 3 3 3 3 2 3 3 3 3 4 5 5 7 9 10 11 12 13 14 15 15 16 17 17 18 18 18 19 20 20 21 21 21 21 21 21 22 22 22 22 22 22 22 23 23 23 22 23 22 19
8 7 6 7 7 7 7 6 5 4 5 4 4 5 5 5 5 5 5 5 4 4 4 4 5 5 4 3 3 3 4 4 4 5 2 2 3 2 2 2 2 3 3 2 4 4 4 5 7 8 9 10 12 14 15 15 16 16 16 16 18 18 19 19 19 19 19 19 19 19 20 20 21 21 22 23 23 24 24 24 24 24 23 23 24
8 8 7 7 8 8 7 5 5 5 5 5 5 6 6 5 5 4 4 5 5 5 5 5 6 5 4 4 5 4 5 6 6 5 2 3 3 2 1 2 2 0 2 3 4 5 4 2 4 5 5 8 11 13 14 15 16 16 15 16 16 17 18 17 17 18 18 18 20 20 21 21 21 22 22 23 23 24 24 24 25 25 25 25 24
9 8 7 7 7 7 6 5 5 5 5 5 5 5 5 4 6 4 4 4 6 7 6 6 5 4 5 6 6 6 5 5 4 2 3 3 2 2 2 2 2 3 3 3 4 4 5 2 1 3 2 6 9 12 14 15 15 15 15 16 16 17 18 18 18 18 19 20 21 22 22 23 23 24 25 26 26 25 26 26 27 27 28 28 28
9 9 8 7 7 7 6 6 5 5 4 4 4 4 3 4 6 4 4 5 7 5 5 5 5 5 6 7 6 6 5 5 3 2 2 2 1 1 1 2 3 3 4 4 5 5 5 6 6 6 5 6 7 10 12 13 14 15 16 17 17 17 18 18 19 20 20 20 21 22 22 22 22 22 22 22 23 23 24 25 25 25 26 27 27
9 9 9 8 7 7 7 6 6 6 6 6 6 5 6 7 7 7 6 5 5 5 4 5 6 7 8 7 6 6 6 4 2 1 0 1 1 1 2 2 3 4 4 4 5 5 5 6 5 6 6 6 3 4 7 10 12 17 17 18 17 18 19 20 20 21 22 22 22 21 22 22 22 22 23 22 24 25 25 25 25 26 26 26 27
9 9 9 8 8 6 6 6 6 6 7 8 8 8 7 7 6 5 6 7 7 5 5 4 6 8 6 5 5 5 4 1 1 2 2 1 1 1 2 2 4 3 4 4 4 5 6 6 6 6 6 5 5 6 5 7 14 17 19 19 18 19 20 20 21 21 20 20 21 21 21 22 22 23 23 24 24 24 24 25 25 25 26 27 27
10 10 9 9 8 7 7 7 7 7 7 6 7 8 7 6 6 6 6 9 9 6 4 4 6 6 6 6 6 4 1 1 1 5 0 1 1 2 3 3 4 4 4 4 4 6 6 6 6 6 6 6 6 6 7 9 12 15 18 20 19 19 19 19 20 20 20 20 20 21 21 22 23 23 24 24 25 26 26 27 27 27 28 28 28
11 11 8 9 9 8 8 7 8 7 6 7 8 8 6 7 7 7 6 5 6 1 4 6 7 5 5 6 5 3 1 3 3 4 2 2 3 3 3 4 5 3 3 5 5 6 5 6 6 6 6 6 6 7 7 9 11 12 17 19 18 19 19 19 19 20 20 20 21 22 22 22 23 23 23 24 24 26 27 27 28 28 28 28 29
11 11 10 8 9 9 8 7 8 8 8 8 8 8 7 7 7 7 6 7 5 5 6 5 5 5 5 3 2 2 2 4 2 1 3 4 3 3 3 3 3 3 4 5 6 5 6 6 6 6 6 6 6 7 7 8 10 11 11 13 17 19 19 19 19 20 20 20 21 21 21 21 22 22 23 24 24 25 25 26 27 28 28 28 29
9 11 11 11 9 9 8 8 8 9 9 8 9 10 9 8 7 7 8 8 8 8 4 4 5 6 7 4 3 3 3 3 4 1 4 3 1 1 3 2 2 4 4 5 6 5 5 5 5 5 6 7 7 7 7 8 8 9 11 14 17 18 18 18 19 19 19 20 20 21 21 21 22 23 23 24 25 25 26 26 26 26 27 29 29
11 11 10 7 11 12 10 9 10 10 9 8 7 7 9 9 9 9 9 9 9 7 6 4 5 7 7 6 5 5 2 3 1 3 5 3 2 2 3 2 2 4 4 5 5 4 4 4 5 5 6 7 6 7 6 7 8 8 9 12 18 18 17 18 18 18 19 20 21 21 21 22 22 24 24 24 25 26 26 26 26 27 27 27 27
11 12 11 9 9 9 10 10 11 9 10 9 9 10 10 10 8 9 11 9 7 8 8 6 5 5 5 7 5 1 2 4 3 1 4 3 2 1 3 2 3 5 3 3 3 3 3 4 4 5 6 6 7 6 6 6 8 8 12 16 17 17 17 17 17 18 19 20 20 20 21 22 23 24 25 26 26 26 26 26 26 27 27 28 28
11 11 11 11 9 11 9 9 7 9 8 9 10 10 9 6 9 9 8 6 7 8 8 6 6 6 7 8 6 3 2 3 3 4 3 3 4 4 2 2 5 4 1 2 3 3 3 4 5 5 5 6 6 6 6 6 7 9 9 17 17 18 18 17 17 17 18 19 20 21 22 23 24 24 25 26 27 26 26 26 27 27 28 28 28
12 12 11 12 9 11 11 9 8 7 5 7 7 8 9 9 8 7 8 7 7 9 8 7 8 7 6 4 5 5 4 3 2 3 4 4 5 3 2 4 5 2 1 3 3 3 3 4 5 6 5 5 5 5 6 6 7 9 10 16 17 18 18 18 17 17 18 19 20 21 22 23 25 25 26 26 26 27 26 26 27 27 28 29 28
11 12 12 12 11 11 10 11 11 10 7 8 8 8 8 9 8 8 8 8 7 6 9 8 8 7 5 5 6 5 3 3 3 5 3 4 4 4 4 5 5 1 1 3 3 3 3 4 5 5 5 4 5 5 7 6 7 9 11 15 15 17 18 18 18 18 19 20 21 22 23 23 24 25 26 26 27 27 27 28 28 29 30 29 29
10 11 12 11 12 11 10 11 11 9 8 9 8 9 8 11 7 7 6 8 7 7 6 8 7 7 5 6 7 6 5 5 6 5 4 3 3 3 2 4 5 7 1 4 4 3 3 5 5 5 4 5 5 6 7 6 7 13 13 12 13 15 17 18 18 19 20 20 21 22 23 23 25 26 26 27 27 28 28 28 30 30 30 31 31
10 9 10 11 10 10 11 11 10 9 10 10 10 11 10 8 6 6 7 8 6 5 7 8 8 4 5 5 4 4 4 6 6 6 5 4 2 2 3 4 4 4 4 5 4 4 4 6 6 6 6 6 7 8 8 8 7 14 14 12 13 16 18 20 21 21 21 21 22 23 24 25 25 26 26 27 28 28 29 30 30 31 31 32 32
11 10 11 13 10 11 10 10 10 9 9 10 9 8 7 8 9 10 10 10 10 10 9 9 8 6 6 5 4 5 6 4 4 5 4 2 3 4 3 2 3 2 1 2 2 3 4 4 5 5 6 7 8 9 8 8 7 12 15 9 13 16 19 20 21 21 21 22 23 24 25 26 26 27 27 28 28 29 30 30 30 31 31 31 32
11 11 12 13 11 10 9 9 9 11 11 10 10 10 8 8 9 9 10 10 9 10 9 9 7 8 5 7 7 7 5 5 5 4 4 4 5 5 3 3 4 3 1 1 1 1 3 3 4 4 4 6 8 8 8 8 7 12 14 10 10 14 16 18 20 20 20 21 22 23 23 24 25 26 26 27 28 28 29 29 29 29 31 31 32
11 12 13 13 12 11 11 10 10 8 8 11 9 8 7 7 6 7 8 8 7 7 6 8 8 8 8 8 7 6 6 5 4 4 2 3 3 3 4 4 5 4 3 3 2 4 1 3 2 3 4 5 6 5 5 6 6 12 13 8 8 11 14 18 19 19 19 19 20 21 22 23 24 24 24 25 26 27 27 28 28 28 29 30 31
12 12 13 12 11 11 10 11 11 9 8 9 8 7 8 7 7 6 6 4 7 8 6 8 9 10 9 7 7 6 5 5 3 3 2 2 2 3 4 4 2 3 3 3 3 3 2 2 4 4 4 6 6 5 5 6 4 11 9 7 7 8 12 17 19 18 17 18 19 20 20 21 22 23 23 24 25 25 26 26 27 28 29 29 30
10 9 10 11 9 10 9 10 10 8 8 7 7 8 8 8 7 7 6 6 7 8 7 7 7 8 7 7 6 6 5 4 3 3 4 4 3 3 4 4 2 1 2 2 3 2 4 1 1 3 6 5 5 5 5 4 4 7 7 6 6 6 10 16 17 16 16 17 18 19 21 21 22 23 23 24 25 25 27 28 28 28 29 30 31
7 8 8 9 9 9 9 8 8 8 8 6 7 7 7 6 8 7 7 8 8 7 7 8 8 7 6 6 6 5 5 4 4 4 4 4 4 4 3 1 1 1 0 2 1 2 3 3 1 0 3 4 4 4 4 5 2 6 6 6 6 6 12 17 16 14 14 16 17 18 20 21 23 23 23 24 25 26 27 28 27 28 29 29 30
10 8 7 7 8 8 8 7 7 8 8 7 7 7 7 5 5 7 8 8 9 9 7 8 7 7 8 8 6 6 5 5 5 5 5 3 3 3 3 2 2 1 0 1 1 3 1 1 1 1 2 4 4 4 4 4 4 6 6 6 6 9 14 12 12 13 13 15 16 18 20 22 22 23 23 23 25 27 27 27 27 28 29 29 29
9 8 8 8 8 8 7 7 7 6 7 7 8 8 7 8 7 7 7 8 9 10 9 6 5 6 8 8 7 6 6 6 6 6 5 3 3 3 3 3 3 2 1 1 2 2 2 0 2 3 2 4 5 3 4 4 4 6 7 6 7 10 8 8 10 11 13 14 16 18 21 22 22 22 23 23 25 26 26 26 27 27 28 28 28
8 8 8 8 8 8 8 8 9 9 7 6 7 8 8 8 6 7 8 9 10 8 8 8 7 7 8 8 8 7 6 6 6 5 5 4 3 4 4 4 4 3 1 1 3 3 1 2 2 3 3 3 4 2 5 5 5 5 7 7 7 7 8 8 9 11 12 14 15 19 21 23 22 22 22 23 25 26 26 26 26 26 27 28 29
8 8 8 7 7 8 8 7 6 7 8 9 7 8 10 9 8 5 8 11 12 9 8 7 6 4 7 8 7 7 6 7 7 6 5 5 4 5 4 3 4 3 1 1 2 2 2 2 3 3 3 3 4 3 5 6 6 6 7 7 6 7 8 9 9 9 13 14 17 20 22 23 22 22 23 24 25 26 26 26 26 27 28 28 29
5 7 7 7 8 8 7 8 8 7 8 9 8 8 9 11 11 8 9 10 11 10 9 8 7 7 8 8 8 7 6 8 7 6 5 6 5 5 5 4 4 4 2 1 1 1 3 3 2 4 4 4 4 6 6 6 7 7 7 7 7 6 7 9 9 9 11 15 18 19 21 24 23 23 23 24 26 25 25 25 26 28 27 27 29
7 4 6 7 8 8 8 8 9 8 7 8 9 9 11 12 11 11 9 8 8 8 9 8 8 8 9 9 8 8 8 8 6 6 5 5 5 5 5 4 4 3 2 2 1 0 1 3 3 4 5 6 5 6 5 6 7 7 6 6 7 8 8 8 10 10 11 19 19 17 17 21 24 24 23 23 23 24 26 27 27 27 27 27 28
6 7 6 6 8 8 9 10 10 10 9 9 10 8 7 9 11 11 9 8 8 8 7 8 8 8 8 9 10 8 8 8 7 6 5 6 5 5 5 4 3 3 2 2 1 1 2 3 4 4 4 4 5 5 5 8 7 6 6 7 7 6 8 10 10 10 14 15 15 17 17 20 23 24 23 20 22 25 26 25 25 25 25 25 27
7 7 8 7 8 9 9 10 11 10 9 9 9 10 10 9 8 8 8 8 8 8 8 7 7 7 8 9 9 8 7 8 7 7 7 7 5 5 5 4 3 3 3 2 1 1 2 3 4 5 4 5 6 5 6 8 9 9 7 6 6 5 8 11 11 10 10 10 8 9 12 16 20 25 21 19 23 24 21 22 23 23 23 24 28
9 8 7 8 6 8 8 9 9 10 10 9 9 9 10 9 9 10 9 9 9 7 7 7 7 7 8 8 7 7 7 7 8 8 8 7 5 6 5 4 3 3 3 2 1 2 2 3 3 3 4 4 4 6 6 7 7 7 9 11 7 4 6 9 13 13 12 13 11 10 11 14 18 17 19 21 21 21 21 21 21 22 22 25 29
8 10 11 9 7 6 7 8 7 8 9 9 11 10 10 11 9 8 9 10 10 9 9 8 7 7 7 7 6 6 6 7 7 8 7 7 6 6 5 4 4 4 3 2 2 1 1 2 2 3 4 4 4 5 6 7 7 6 7 9 12 13 12 10 9 12 13 13 14 11 10 12 12 17 19 17 16 18 21 20 19 21 23 27 30
7 8 9 10 10 8 6 8 9 7 8 8 8 11 12 9 8 10 10 11 11 11 10 9 8 8 7 6 6 5 6 7 8 7 6 6 6 6 5 5 4 3 2 2 1 0 1 1 2 2 3 4 4 6 8 8 9 9 10 10 10 10 11 12 11 10 11 12 12 14 11 11 12 11 12 11 11 16 16 17 17 20 25 28 30
8 8 9 9 10 11 10 8 7 7 6 6 9 13 14 13 11 9 9 10 11 10 11 10 9 8 7 6 7 10 10 10 9 9 9 5 3 4 5 5 4 3 2 1 1 0 0 1 1 3 3 4 5 6 6 7 8 9 10 11 11 11 12 12 11 7 8 10 14 15 13 11 13 13 11 11 11 11 11 11 12 19 25 30 30
9 9 10 10 9 8 10 10 10 7 7 6 14 15 15 17 13 11 11 10 10 10 10 10 10 9 8 9 9 10 10 10 9 10 10 9 7 6 5 3 2 2 2 2 1 1 0 1 1 2 3 4 4 5 5 6 7 9 10 10 10 11 10 12 13 13 5 11 13 13 13 11 12 14 13 12 11 11 13 13 22 24 27 30 30
8 8 9 9 10 10 8 9 8 6 6 11 17 16 18 16 13 10 10 10 9 9 9 10 9 9 10 9 8 7 7 8 9 9 9 9 9 8 7 6 5 5 3 1 1 1 0 1 2 2 3 4 5 5 5 7 8 9 9 9 9 9 10 11 11 12 12 14 14 14 15 10 12 12 14 12 11 11 14 20 25 26 29 30 30
10 9 9 10 10 8 9 10 7 7 8 13 15 18 17 12 13 12 9 9 10 9 10 10 10 10 9 9 8 6 6 7 8 8 8 8 8 8 8 9 7 5 5 6 6 2 0 1 1 3 2 3 4 4 5 7 8 9 9 8 8 9 9 10 10 12 14 13 13 14 14 12 12 14 15 14 11 13 15 17 24 27 29 29 31
10 10 11 9 9 8 7 8 8 8 9 13 14 16 14 14 12 10 9 9 9 9 10 10 9 10 10 10 9 8 9 9 7 8 8 7 7 7 6 5 4 5 6 5 4 4 1 1 1 2 2 2 3 5 6 7 7 7 8 9 9 10 10 10 12 13 13 11 10 13 15 12 13 15 15 15 14 14 14 21 27 27 29 32 32
10 11 12 9 7 7 8 8 8 8 8 15 15 15 15 14 13 10 9 8 8 8 8 8 9 9 9 8 9 9 10 8 7 8 8 8 7 6 5 4 4 4 3 3 2 1 0 1 1 2 2 2 3 5 5 5 6 6 7 9 10 10 11 12 9 8 7 8 10 10 12 14 13 15 15 15 16 16 14 19 24 25 27 30 32
5 6 4 4 8 6 8 9 9 9 10 16 15 16 17 16 14 9 9 9 9 8 8 8 7 8 7 8 8 9 9 8 9 11 8 7 6 5 5 5 5 4 4 5 4 4 2 2 1 2 2 3 4 4 4 5 5 6 7 7 6 6 9 8 7 5 6 5 8 9 11 13 12 13 17 16 16 16 17 14 19 23 26 29 30
9 5 4 4 4 8 8 9 10 9 11 14 15 17 18 18 12 8 9 8 8 8 8 7 7 7 7 8 8 8 8 8 11 12 10 8 6 6 5 5 3 4 4 3 3 3 3 2 1 1 2 2 3 4 4 6 6 6 5 5 4 7 8 9 9 7 7 7 7 7 9 12 11 12 16 17 17 16 14 13 13 20 26 27 27
8 4 4 4 4 5 7 9 9 11 11 14 15 17 18 16 11 10 8 7 8 8 8 7 6 6 6 6 8 8 8 9 14 13 13 9 7 6 6 5 5 4 3 2 1 1 1 1 2 2 2 3 3 4 4 6 8 6 3 4 6 6 7 6 9 10 10 8 4 7 10 10 12 11 13 16 18 9 8 12 16 18 22 20 25
7 6 5 6 5 4 3 4 8 9 10 13 15 17 17 13 10 8 8 7 9 8 8 8 6 6 7 5 5 6 8 11 16 14 13 9 7 6 6 6 5 5 3 2 2 1 1 0 0 1 1 2 2 2 2 5 6 6 4 4 5 5 6 7 8 9 10 5 2 9 11 11 12 12 11 13 14 16 9 9 13 15 15 14 16
Wind_Direction
195 196 191 196 190 192 193 193 185 179 195 187 222 187 187 180 180 186 202 205 209 216 275 231 250 224 298 311 305 305 310 301 313 306 299 305 310 67 198 292 287 302 307 312 314 314 316 317 319 320 320 319 320 321 322 324 324 322 320 319 317 316 314 314 310 308 304 309 301 295 295 294 295 295 290 296 287 277 278 271 268 270 268 272 275
191 191 196 197 194 195 199 200 205 188 204 202 192 225 195 181 184 195 208 221 245 41 298 295 286 283 301 322 307 304 304 302 303 300 304 301 298 301 187 267 288 301 309 313 312 316 318 319 321 321 321 322 321 322 324 325 325 325 325 324 323 321 322 323 318 317 315 312 303 301 295 297 291 292 292 288 289 294 285 279 276 273 270 269 268
185 187 195 194 196 196 201 201 209 207 208 206 194 235 216 206 194 206 214 236 271 337 297 305 291 283 286 298 307 300 300 298 295 297 293 294 302 304 292 223 258 281 299 308 315 318 321 324 328 330 328 328 329 330 331 333 334 333 330 327 326 326 326 327 329 330 327 330 333 331 322 315 321 314 306 305 302 293 287 285 284 284 281 275 270
186 185 195 194 200 202 199 202 207 206 206 206 193 209 219 193 186 255 279 269 268 259 295 293 292 290 317 288 281 289 289 291 286 282 288 293 289 301 308 314 209 230 270 297 311 319 323 330 334 336 338 340 341 342 342 342 340 337 335 332 330 331 332 336 340 340 340 338 337 338 338 338 334 332 330 331 319 307 296 288 282 282 282 279 277
189 188 190 200 204 202 205 211 202 199 200 200 201 209 209 199 182 199 227 241 251 260 235 263 269 286 279 286 287 271 262 274 270 265 269 271 292 305 314 317 324 206 210 251 307 320 330 338 341 343 345 347 348 348 348 346 344 341 342 340 342 341 341 342 342 340 341 341 344 343 344 341 337 335 334 331 329 324 319 310 302 298 294 290 282
197 186 191 199 209 215 215 214 206 193 187 188 199 209 207 202 203 204 211 237 243 252 269 268 277 266 256 249 264 276 267 250 252 262 268 280 292 306 309 320 325 333 360 200 210 313 346 348 347 347 347 349 349 349 349 348 346 346 346 346 345 343 341 338 340 344 343 347 344 342 343 342 338 333 329 328 327 324 322 319 314 314 310 302 299
198 196 195 204 217 220 222 217 189 184 190 193 207 206 220 219 219 228 235 243 251 256 252 265 276 276 269 254 272 274 247 251 259 253 253 278 288 289 305 316 333 353 355 0 143 125 20 355 348 348 348 348 349 350 351 349 347 348 347 344 343 342 344 348 349 349 349 347 342 343 342 338 333 331 329 326 324 322 320 319 317 315 315 309 304
200 200 200 200 218 225 223 214 179 194 206 197 213 219 220 225 224 233 242 244 249 252 250 269 275 281 277 279 275 243 268 278 271 277 287 297 297 298 317 343 7 26 347 7 11 65 67 2 348 347 348 350 351 354 355 353 352 351 349 348 347 347 351 352 353 350 347 346 344 341 338 337 337 335 333 332 332 329 327 324 322 321 319 317 316
201 199 207 205 218 224 221 201 187 205 205 207 212 224 226 226 226 214 245 269 264 265 270 269 279 285 278 274 269 261 279 292 293 298 301 290 308 327 359 53 63 35 38 26 24 12 81 33 344 333 343 356 355 356 358 359 0 358 356 355 354 355 355 355 352 351 349 346 346 345 343 343 341 340 340 340 338 336 336 334 329 327 325 323 321
198 198 207 206 206 209 210 181 186 204 209 209 220 224 227 218 236 203 217 240 267 271 270 270 284 281 278 274 282 286 289 289 297 294 300 318 323 27 36 63 68 48 52 45 22 21 3 38 259 269 115 19 1 360 3 7 4 4 4 2 3 0 3 1 359 356 355 355 353 351 349 348 348 347 346 343 341 339 338 337 335 334 332 332 332
194 195 205 202 205 208 202 178 185 199 205 208 212 210 217 218 229 202 203 227 261 263 273 288 287 278 271 284 284 275 283 292 291 301 317 325 1 56 54 80 77 67 57 33 28 9 9 360 359 359 27 48 6 6 3 10 4 12 12 10 8 5 7 4 1 360 359 355 354 350 349 348 346 343 341 338 334 333 333 332 330 328 327 327 326
196 196 203 206 206 203 201 178 189 193 196 207 213 210 213 220 227 223 210 208 219 229 225 250 273 275 281 286 277 273 277 290 307 315 268 99 72 16 101 98 93 79 53 31 20 12 9 3 5 7 7 20 30 18 6 12 12 14 16 13 10 8 6 3 1 359 357 353 352 348 347 345 344 342 339 337 336 336 335 333 330 330 327 325 323
201 195 201 202 207 200 190 183 190 203 209 212 213 217 214 214 222 218 233 230 232 215 223 232 274 283 273 259 286 285 291 310 270 150 128 12 353 217 120 113 91 69 38 21 17 22 13 12 13 11 10 7 24 41 35 43 27 18 21 16 9 8 4 1 359 356 354 352 350 349 347 346 344 342 339 339 338 337 334 330 330 330 328 327 325
214 209 200 200 200 198 192 192 190 202 215 225 220 225 208 203 207 226 215 238 254 246 199 193 251 268 300 306 305 298 11 305 179 148 327 60 60 111 109 101 84 53 26 3 30 20 21 19 17 16 16 14 18 20 28 31 24 19 23 16 7 4 360 356 354 354 353 351 350 349 348 347 346 344 342 340 338 337 335 334 334 332 330 328 326
213 215 203 201 202 197 198 192 191 199 203 214 219 217 207 207 209 231 244 210 243 211 219 212 265 283 289 300 292 331 179 140 129 186 355 87 112 103 101 109 77 47 8 17 19 21 25 23 20 21 20 19 22 25 33 33 23 21 22 13 2 360 355 353 353 355 355 353 353 352 350 349 347 344 341 339 337 336 335 333 332 330 328 327 325
214 214 216 201 202 202 199 195 197 200 209 209 205 214 209 212 207 219 240 245 219 226 200 217 236 243 261 242 318 301 284 145 78 39 52 115 101 105 130 109 84 42 9 23 19 25 26 23 21 28 23 27 28 33 38 31 25 23 20 9 357 360 358 356 356 357 355 354 353 351 348 346 343 341 339 338 336 336 334 333 331 329 328 326 324
212 217 220 217 211 206 201 200 199 200 209 217 213 209 207 206 205 209 207 232 251 240 203 193 213 231 260 250 217 211 225 33 334 6 142 147 30 100 119 119 54 17 16 27 21 26 27 27 31 36 35 37 38 41 45 33 21 15 10 5 360 2 1 357 356 356 355 353 351 350 348 345 344 342 340 339 337 336 334 333 331 329 328 326 325
212 213 214 200 220 218 204 198 215 217 216 213 217 207 207 212 208 215 219 220 248 242 228 179 216 227 239 255 303 286 332 154 246 186 191 82 50 140 149 110 7 359 22 26 26 26 35 36 36 46 45 43 47 47 44 38 24 19 13 360 360 1 1 359 357 357 355 352 351 351 348 346 345 344 342 340 339 337 335 333 332 331 329 328 326
206 209 207 200 209 213 216 205 195 198 202 206 210 212 220 214 208 206 226 225 211 243 246 219 176 224 223 238 236 99 189 218 250 287 273 138 222 259 171 129 333 337 20 24 38 34 46 45 45 56 57 52 50 42 32 35 34 20 16 1 3 3 2 1 359 357 355 352 351 350 348 347 346 344 343 342 339 338 336 334 333 333 331 329 328
204 206 210 211 205 214 214 224 219 199 186 199 210 207 209 207 207 206 210 200 197 222 237 231 211 214 209 223 221 172 168 207 245 248 271 277 284 192 232 160 304 322 36 32 38 42 54 58 60 63 71 62 50 36 29 30 31 14 10 2 4 3 1 360 359 356 353 351 351 349 348 347 346 345 344 342 340 339 337 335 335 333 332 331 330
208 213 212 213 205 214 215 213 216 224 204 207 215 207 200 206 192 195 199 211 215 222 234 233 221 221 156 192 209 202 194 191 154 198 189 212 260 258 281 330 319 251 109 68 40 40 44 53 65 65 73 57 40 37 30 32 32 14 5 1 2 1 358 357 357 353 352 351 350 348 347 346 346 344 343 341 340 339 338 336 335 334 333 331 330
203 207 210 206 208 210 215 214 214 211 201 207 209 214 210 205 190 191 193 199 205 209 227 236 227 222 193 190 184 170 168 151 166 182 209 214 252 292 320 321 317 273 333 52 34 49 68 74 79 78 72 54 35 36 26 31 36 16 358 357 359 358 356 355 354 352 351 350 350 348 347 346 345 344 342 341 340 338 338 336 335 334 333 331 331
201 205 205 204 210 209 209 214 214 209 198 204 208 211 215 220 200 183 180 195 197 202 210 234 226 212 191 187 199 184 178 174 175 185 183 173 207 249 287 308 295 304 22 11 18 41 60 77 76 76 61 47 38 28 28 23 44 20 351 357 357 356 354 353 352 351 350 349 348 346 346 345 344 343 342 341 340 338 337 336 335 335 333 332 331
198 196 202 204 204 205 203 209 212 208 205 207 210 212 210 205 194 195 201 201 203 186 211 209 202 176 182 187 188 180 184 209 196 179 191 218 216 266 286 280 262 249 312 337 18 28 42 55 54 51 36 29 22 23 19 14 30 23 353 351 356 356 355 352 351 350 348 347 347 346 345 344 343 342 341 340 338 337 336 335 335 334 333 332 330
198 197 200 201 205 207 202 201 204 209 210 206 206 197 199 199 206 206 207 202 206 207 208 203 182 177 178 182 180 191 197 197 176 172 174 196 217 264 254 217 248 265 259 315 13 41 52 64 51 47 31 22 18 15 10 6 359 8 347 341 358 357 353 350 348 347 346 345 345 345 344 342 341 340 340 339 337 336 335 334 333 332 330 329 327
195 197 202 203 202 201 199 202 204 207 206 209 211 203 192 194 197 197 196 198 196 197 203 194 181 175 148 173 185 181 163 161 165 166 192 227 242 225 207 185 222 247 206 221 142 206 140 92 74 60 46 29 18 12 4 350 348 357 336 329 353 355 349 344 342 342 342 342 342 341 340 338 338 338 338 336 333 331 329 329 328 328 328 327 326
198 202 205 205 202 202 200 202 205 210 205 200 199 196 194 193 192 194 196 193 178 171 176 172 171 165 172 182 163 155 152 156 169 199 218 232 236 197 177 189 189 200 195 196 171 226 171 113 91 77 63 32 21 2 357 337 350 349 325 341 342 345 343 339 337 337 337 338 339 338 336 334 334 334 330 327 325 326 327 326 326 326 324 323 321
211 207 207 204 199 200 196 200 203 203 201 198 183 177 182 182 183 183 184 168 161 160 154 169 166 159 155 148 154 146 140 147 170 183 189 176 165 164 189 225 215 169 171 193 200 174 171 199 128 92 43 26 4 345 335 322 353 340 322 339 337 330 337 329 326 325 329 332 333 333 332 330 329 328 326 324 325 325 325 324 323 323 322 321 320
206 198 201 198 194 195 196 195 195 191 189 187 171 174 177 182 180 168 162 157 154 149 145 143 135 134 132 143 143 133 131 136 137 138 145 145 159 172 194 206 217 213 185 214 211 202 159 181 303 98 47 10 339 328 321 323 3 338 325 323 321 315 320 314 310 313 318 323 326 329 329 328 328 327 325 326 326 325 324 324 324 323 322 322 322
196 189 193 192 190 190 192 189 186 179 183 182 178 173 175 179 174 165 155 153 147 139 146 140 134 125 113 104 124 120 132 144 124 114 130 141 157 173 174 162 234 240 214 244 256 167 161 146 144 311 360 335 319 303 303 304 5 319 319 308 306 310 308 299 297 301 309 314 320 323 323 324 327 327 325 326 327 325 325 325 324 322 321 321 322
197 189 187 186 188 187 186 181 172 176 171 168 161 161 162 156 144 145 147 150 149 139 128 119 125 130 133 126 129 137 136 128 123 121 129 136 137 138 131 126 100 2 173 202 240 104 87 288 93 81 300 305 302 287 294 299 306 301 311 310 299 302 287 287 290 297 301 310 318 321 322 323 324 322 323 324 326 325 324 324 322 320 320 321 322
196 184 184 184 179 177 175 168 168 167 168 161 154 144 143 138 140 140 143 142 142 136 124 108 124 129 135 134 139 141 138 131 124 120 118 116 128 127 112 103 92 52 99 206 253 197 100 354 310 298 289 299 298 284 306 301 286 256 318 306 302 292 294 309 302 300 304 311 317 322 321 320 321 321 321 322 322 321 322 323 322 320 319 322 322
182 181 182 178 173 171 169 169 169 160 154 149 144 140 137 135 132 138 137 133 121 99 124 126 133 133 136 136 139 140 147 132 121 119 124 127 116 104 102 112 109 87 90 198 233 260 203 147 285 295 306 310 304 305 317 320 320 319 312 310 307 313 309 313 315 310 313 314 316 319 319 319 320 320 320 321 321 320 321 322 322 320 321 322 323
177 176 174 167 164 164 161 153 145 150 142 128 137 136 137 131 123 124 134 130 124 121 125 123 130 118 128 130 130 134 127 111 113 121 131 133 125 114 107 111 107 107 92 215 212 235 278 296 292 305 302 317 305 331 330 328 328 323 319 314 312 311 312 312 315 313 313 314 316 317 316 316 316 317 320 323 323 323 322 323 323 322 322 323 321
168 168 164 160 160 154 150 150 138 137 146 139 139 139 141 139 138 141 146 139 139 140 141 144 142 140 134 129 131 125 116 112 114 115 120 117 110 108 111 108 115 120 129 147 197 217 269 293 293 314 327 326 323 327 330 328 323 320 317 322 321 315 311 313 311 312 311 316 316 314 314 315 314 314 318 322 321 323 324 324 322 321 320 319 320
153 141 145 148 146 143 137 135 138 134 137 137 137 147 148 144 141 144 143 137 136 142 139 142 146 147 138 129 129 126 122 121 124 125 119 116 118 117 115 116 121 129 135 134 150 269 275 292 322 323 321 323 326 325 329 329 329 326 323 320 321 318 316 318 315 313 315 313 312 310 310 312 311 311 315 318 317 321 324 323 319 317 318 320 322
134 131 122 132 136 141 145 147 141 144 148 144 141 141 140 142 143 143 140 138 140 132 134 138 140 137 136 130 132 132 134 128 132 130 125 123 121 122 122 129 133 139 151 140 165 251 266 294 304 307 309 311 316 319 340 338 331 329 331 335 329 320 323 323 319 311 307 310 313 317 316 310 307 308 314 321 324 322 317 316 317 318 320 322 323
128 132 138 141 147 146 149 151 148 146 144 141 138 141 139 135 131 124 126 122 119 122 124 127 131 128 129 128 132 139 145 143 136 130 129 128 124 124 130 135 139 145 134 148 183 227 264 281 296 311 326 330 332 337 350 343 335 334 342 345 330 332 329 325 324 319 314 315 317 315 312 311 309 309 316 324 318 314 314 319 319 321 323 325 325
138 136 135 133 140 143 144 142 144 143 142 137 133 138 139 133 130 134 127 118 122 116 117 120 119 118 119 124 131 138 138 135 136 138 138 134 131 133 136 137 145 148 155 168 187 232 254 291 296 305 317 327 329 332 345 339 335 339 344 339 334 328 328 329 322 320 317 314 311 312 309 301 303 307 312 318 321 318 318 321 322 324 327 326 326
142 146 144 141 130 126 133 132 127 131 134 144 147 145 144 143 134 130 131 130 125 120 120 119 117 114 113 117 124 125 129 137 138 138 143 140 141 141 150 154 154 161 164 172 191 228 264 296 316 328 328 322 331 342 335 341 344 353 6 345 329 329 330 327 316 315 313 314 316 322 319 310 309 309 313 320 322 323 322 323 324 326 328 327 327
137 138 135 135 130 122 121 128 131 134 136 145 150 151 146 137 131 137 136 134 131 130 126 121 114 111 112 111 118 128 114 109 114 129 135 142 150 149 153 160 163 161 160 172 174 225 282 310 319 332 325 335 348 348 348 355 358 342 334 334 320 320 321 318 318 314 311 313 314 316 320 320 312 312 317 316 325 326 325 326 325 327 326 329 329
129 132 132 134 139 141 138 134 141 145 146 152 160 158 152 146 143 139 134 132 134 136 133 128 121 118 116 117 110 109 117 122 122 128 137 144 134 137 149 155 163 153 155 160 178 213 301 316 341 339 337 341 348 355 344 344 340 332 330 333 327 326 324 316 307 313 315 317 322 319 320 320 319 315 315 320 322 324 326 325 328 325 325 327 327
137 141 143 141 145 148 145 148 152 150 155 153 154 156 149 147 141 143 140 137 136 136 136 135 134 132 130 127 129 131 130 133 136 140 139 137 128 115 106 88 75 146 162 164 170 161 197 317 328 332 331 325 342 349 342 341 336 333 327 326 323 324 329 330 324 318 323 337 323 318 313 322 323 318 316 319 322 324 330 327 324 326 326 327 326
145 144 145 150 148 142 138 142 141 140 137 152 157 154 150 151 151 140 137 137 139 137 138 136 136 140 140 140 143 148 155 152 147 145 142 137 136 131 128 124 106 68 50 79 156 152 177 272 329 329 326 326 336 337 341 339 330 324 322 320 318 322 322 321 314 310 312 330 324 317 311 322 323 317 315 317 322 322 327 325 326 327 327 328 328
149 151 143 140 141 135 138 143 137 139 143 157 156 155 152 143 144 137 134 136 136 139 141 142 145 146 145 145 149 154 149 146 156 155 149 144 139 133 119 102 87 79 90 74 49 33 246 275 284 299 319 332 318 331 337 324 321 314 318 315 315 314 312 308 304 307 309 322 319 317 314 320 327 322 315 314 322 326 324 324 325 327 330 329 327
158 152 153 141 142 143 141 136 140 146 147 160 151 151 147 141 135 128 130 130 130 134 141 146 148 149 151 150 149 150 154 166 166 161 159 153 151 151 158 159 139 124 113 100 88 64 18 292 257 264 318 331 305 317 317 321 320 318 315 309 311 308 307 298 299 296 298 312 319 322 309 317 329 321 313 315 322 321 322 325 326 328 333 332 329
157 159 154 149 146 141 136 140 142 146 150 154 154 151 149 141 126 118 125 123 127 132 139 145 146 148 151 151 152 152 158 168 169 167 160 160 158 157 153 148 148 151 143 126 72 51 72 298 265 273 291 297 305 311 318 328 320 310 310 301 304 303 300 297 284 277 298 308 322 323 305 314 325 317 310 318 321 319 323 324 325 330 332 330 329
146 135 129 114 147 141 143 145 142 144 150 157 153 152 149 143 131 127 133 133 134 137 139 143 143 146 150 153 151 153 159 163 165 170 162 155 146 135 144 155 151 152 128 90 67 38 15 332 305 294 299 301 306 332 342 332 326 324 311 303 294 311 312 304 309 312 300 315 323 316 311 311 320 316 310 315 318 318 321 324 326 329 331 329 330
153 150 136 141 144 143 146 150 148 144 153 159 154 152 149 147 141 135 136 132 134 137 140 139 143 148 154 157 153 154 158 160 163 164 155 145 130 139 150 158 160 167 157 128 92 78 34 13 353 315 291 311 0 358 353 352 349 337 317 318 330 333 320 320 316 321 313 322 315 334 320 306 320 323 313 316 318 314 318 322 327 328 327 326 329
155 144 135 130 141 153 153 158 156 147 154 158 155 155 154 156 150 140 142 137 134 136 133 141 145 151 151 144 157 156 157 154 160 162 155 145 142 152 157 156 156 175 165 143 175 125 66 39 64 44 38 48 6 13 19 359 352 346 353 327 317 319 313 311 307 315 312 307 315 357 323 310 319 322 317 315 311 301 321 324 330 327 327 325 329
145 137 137 138 141 152 154 139 139 141 146 156 158 159 161 159 151 143 144 137 139 144 147 148 150 148 151 166 178 163 157 155 162 163 158 155 153 163 160 152 162 182 183 157 185 132 21 12 84 38 356 31 15 3 347 342 348 355 341 312 308 315 307 303 305 311 318 319 7 356 326 320 325 323 333 325 320 311 317 332 329 329 325 328 336